Current Version              Previous Version:    01  02  03  04  05  06  07  08  09  10  11  12  13  14  15  16  17  18  19  20  21  22  23  24  25  26  27  28  29  30  
   31  32  33  34  35  36  37  38  39  40  41  42  43  44  45  46  47  48  49  50  51  52  53  54  55  56  57  58  59  60  

[Printable]
406
ASUS44 KLUB 191310
RWRTX
WEST TEXAS WEATHER ROUNDUP
NATIONAL WEATHER SERVICE LUBBOCK TX
700 AM CST FRI DEC 19 2014

NOTE: "FAIR" INDICATES FEW OR NO CLOUDS BELOW 12,000 FEET WITH NO
SIGNIFICANT WEATHER AND/OR OBSTRUCTIONS TO VISIBILITY.

TXZ004-006>008-010-012-014-016-OKZ002-191400-
TEXAS PANHANDLE/OKLAHOMA PANHANDLE

CITY           SKY/WX    TMP DP  RH WIND       PRES   REMARKS
AMARILLO       LGT RAIN  36  35  96 S3        30.12R FOG
BORGER         CLOUDY    37  31  78 N6        30.13S WCI  32
CANADIAN       CLOUDY    38  38  98 E3        30.16R FOG
DALHART        CLOUDY    32  30  92 W5        30.13R FOG     WCI  27
DUMAS          CLOUDY    32  31  94 CALM      30.12R FOG
GUYMON         CLOUDY    36  34  92 SW3       30.11S
HEREFORD       CLOUDY    37  37  99 S6        30.12R FOG     WCI  32
PAMPA          CLOUDY    36  33  91 NE5       30.13S FOG     WCI  32
PERRYTON       CLOUDY    36  35  96 S3        30.14R
$$

TXZ026-029-035-045-048-191400-
SOUTHERN PANHANDLE/SOUTH PLAINS/ROLLING PLAINS

CITY           SKY/WX    TMP DP  RH WIND       PRES   REMARKS
CHILDRESS      LGT RAIN  40  38  93 SE7       30.19R
SEMINOLE       FOG       36  36  99 CALM      30.14R VSB 3/4
LUBBOCK        CLOUDY    38  37  97 SE7       30.13R WCI  33
PLAINVIEW      CLOUDY    37  36  95 SE6       30.11R WCI  33
SNYDER         CLOUDY    39  36  91 NE7       30.17R WCI  34
$$

TXZ052-054-060>062-072-078-127-140-154-169-191400-
PERMIAN BASIN/CONCHO VALLEY/BIG COUNTRY/EDWARDS PLATEAU

CITY           SKY/WX    TMP DP  RH WIND       PRES   REMARKS
ABILENE        CLOUDY    43  41  93 NE5       30.18R
BIG SPRING     CLOUDY    41  38  87 E6        30.17R
BRADY          CLOUDY    45  43  93 N8        30.13R
BROWNWOOD      CLOUDY    45  43  93 N9        30.16R
JUNCTION       CLOUDY    48  46  93 NE9       30.12R
MIDLAND        CLOUDY    40  38  93 E6        30.13R FOG
ODESSA         FOG       39  38  96 E5        30.14R VSB 1/2
SAN ANGELO     CLOUDY    45  42  89 NE12      30.15R
SONORA         CLOUDY    50  50 100 N10       30.15R FOG
SWEETWATER     CLOUDY    40  40 100 E8        30.18R
WINK           CLEAR     35  31  85 E3        30.12R
$$

TXZ055-058-074-075-080-082-191400-
FAR WEST/SOUTHWEST MOUNTAINS/TRANS PECOS

CITY           SKY/WX    TMP DP  RH WIND       PRES   REMARKS
ALPINE         CLEAR     32  28  85 S6        30.19R WCI  26
DRYDEN           N/A     48  37  65 NW3       30.08R
EL PASO        CLEAR     36  34  92 NE5       30.16R WCI  32
FORT STOCKTON  CLEAR     40  31  70 CALM      30.13R
MARFA          CLEAR     27  25  93 N3        30.16R
PECOS          FAIR      36  31  83 W5        30.14R WCI  32
PRESIDIO       FAIR      39  31  73 N5        30.14R
$$

TXZ014-016-019-021>030-083-191400
TEXAS TECH WEST TEXAS MESONET/TEXAS PANHANDLE/NORTHERN SOUTH PLAINS

CITY           SKY/WX    TMP DP  RH WIND       PRES   REMARKS
ABERNATHY 5ENE   N/A     37  37  97 E5        30.14R WCI  34
AMARILLO 9NNE    N/A     36  36  98 CALM      30.13R
AMARILLO 7SSE    N/A     35  35  99 CALM      30.12S
AMHERST 1NE      N/A     37  36  98 SE3       30.12S
BOOTLEG 11WNW    N/A     34  33  97 SW3       30.13R
CANADIAN 6E      N/A     36  36  99 E3        30.16R
CAPROCK CYN SP   N/A     37  37 100 SE8       30.17R WCI  31
CHILDRESS 2NNE   N/A     38  37  98 E8        30.19R WCI  32
CLARENDON 2WSW   N/A     37  35  94 E5        30.14R WCI  33
CLAUDE 12SW      N/A     35  35 100 SE2       30.12R
DIMMITT 2NE      N/A     35  34  98 S9        30.11R WCI  28
FLOYDADA 2NNE    N/A     35  35  99 E8        30.14R WCI  29
FRIONA 2NE       N/A     36  35  96 S7        30.11R WCI  30
GOODLETT 3W      N/A     39  38  94 E6        30.19S WCI  35
HART 3N          N/A     35  35  99 S6        30.11S WCI  30
HEREFORD 2NW     N/A     35  34  96 S5        30.11R WCI  31
MCLEAN 1E        N/A     36  36  98 E3        30.13S
MEMPHIS 1NE      N/A     38  37  94 E6        30.17R WCI  34
MULESHOE 2SSW    N/A     37  37  98 S6        30.11S WCI  33
OLTON 6S         N/A     37  35  94 SE3       30.13R
PALO DURO SP     N/A     36  35  96 CALM      30.14R
PAMPA 2E         N/A     36  34  93 NE3       30.13S
PLAINVIEW 1S     N/A     37  36  99 SE7       30.12R WCI  31
SILVERTON 7ESE   N/A     36  35  98 SE10      30.14R WCI  28
TULIA 2ENE       N/A     36  35  99 S6        30.12R WCI  31
TURKEY 2WSW      N/A     38  38  99 SE8       30.17R WCI  32
UMBARGER 3NNE    N/A     35  34  98 S1        30.12R
$$

TXZ033>036-039>041-045>048-191400
TEXAS TECH WEST TEXAS MESONET/SOUTH PLAINS

CITY           SKY/WX    TMP DP  RH WIND       PRES   REMARKS
AIKEN 3WSW       N/A     36  36  99 SE7       30.15R WCI  31
ANDREWS 2NE      N/A     38  37  94 E5        30.13R WCI  35
ANTON 6SSW       N/A     38  37  96 SE1       30.13R
BROWNFIELD 2S    N/A     35  34  96 E6        30.14R WCI  30
DENVR CTY 7WNW   N/A     34  33  99 NE2       30.12R
GAIL 2ESE        N/A     39  36  87 E7        30.15S WCI  34
LAMESA 2SE       N/A     37  37  97 E6        30.15R WCI  33
LEVELLAND 4S     N/A     37  35  93 E2        30.13R
LUBBOCK 3WNW     N/A     38  36  92 E3        30.15R
MORTON 1ENE      N/A     37  37  99 S3        30.12R
ODONNELL 1N      N/A     37  35  94 E8        30.14S WCI  30
PLAINS 3N        N/A     35  35  99 SW1       30.12R
RALLS 1SE        N/A     37  36  98 E8        30.15R WCI  31
REESE CENTER     N/A     37  36  94 E5        30.14R WCI  33
SEAGRAVES 1SW    N/A     35  35  98 E3        30.13R
SEMINOLE 2NNE    N/A     36  35  96 E5        30.13R WCI  32
SLATON 2NE       N/A     37  36  97 E9        30.15R WCI  30
SNYDER 3E        N/A     38  36  92 NE6       30.16R WCI  34
SUNDOWN 8SW      N/A     36  35  97 NW1       30.12R
TAHOKA 3NNE      N/A     37  35  96 E9        30.14R WCI  30
WOLFFORTH 6SSW   N/A     37  36  99 SE5       30.15R WCI  33
$$

TXZ031-032-036>038-042>044-191400-
TEXAS TECH WEST TEXAS MESONET/ROLLING PLAINS

CITY           SKY/WX    TMP DP  RH WIND       PRES   REMARKS
ASPERMONT 3NE    N/A     41  40  93 NE5       30.18S
FLUVANNA 3WNW    N/A     38  35  90 NE7       30.15R WCI  32
GRAHAM 5SSW      N/A     37  35  94 E9        30.15R WCI  30
GUTHRIE 10WSW    N/A     40  38  94 E3        30.18R
HASKELL 1NW      N/A     42  40  93 N7        30.18S
JAYTON 1SSE      N/A     40  38  91 NE6       30.17S
KNOX CITY 3NW    N/A     42  38  84 NE5       30.20S
LK A HENRY 1NW   N/A     40  36  86 E6        30.17R
NORTHFIELD 1S    N/A     38  38  99 E7        30.18R WCI  33
ODELL 4ENE       N/A     40  39  97 NE7       30.21F
PADUCAH 10SW     N/A     39  38  95 E6        30.18S WCI  35
POST 1NE         N/A     39  37  92 E7        30.16R WCI  34
RRING SPRGS 3N   N/A     37  37  99 E7        30.16S WCI  32
SEYMOUR 3NW      N/A     42  41  95 NE2       30.20R
SPUR 1W          N/A     39  37  92 E5        30.16S
WHITE RVR 6NE    N/A     38  36  93 E7        30.15R WCI  32
$$

TXZ052-054-060>062-072-078-127-140-154-169-191400-
TEXAS TECH WEST TEXAS MESONET/PERMIAN BASIN/
CONCHO VALLEY/BIG COUNTRY/EDWARDS PLATEAU

CITY           SKY/WX    TMP DP  RH WIND       PRES   REMARKS
COYANOSA 2N      N/A     36  31  85 SW2       30.15R
JUNCTION 1SSW    N/A     47  46  93 N8        30.13R
MERTZON 3NNE     N/A     43  42  97 N5        30.16R
SAN ANGELO 7NW   N/A     44  39  85 N6        30.16R
STRLNG CT 4WSW   N/A     40  37  89 E5        30.15R
ST LAWRNCE 5SW   N/A     40  39  99 E8        30.12S WCI  34
SWEETWATR 11SW   N/A     38  37  96 NE10      30.16R WCI  32
WALL 1E          N/A     43  41  91 N10       30.16R
$$

TXZ055-058-074-075-080-082-191400-
TEXAS TECH WEST TEXAS MESONET/FAR WEST/SOUTHWEST MOUNTAINS/TRANS PECOS

CITY           SKY/WX    TMP DP  RH WIND       PRES   REMARKS
PRSMN GAP BBNP   N/A     40  33  74 SW2       30.12R
$$